CW9098 Weather Reports


Display with metric or nautical units.
time (UTC)temp
F
wind
direction
speed
MPH
gust
MPH
rain 1hr
in
rain 24hr
in
rain mn
in
humidity
%
barometer
mb
20260903100622 66 319 2.0 4.0 0.77 1.19 0.68 84 1018.1
20260903100157 66 101 0.0 3.0 0.80 1.19 0.68 84 1018.0
20260903095624 66 101 0.0 9.0 0.80 1.19 0.68 84 1018.1
20260903095137 66 95 3.0 13.0 0.79 1.18 0.67 84 1018.1
20260903094625 66 14 8.0 13.0 0.79 1.18 0.67 84 1018.5
20260903094140 66 53 3.0 11.0 0.79 1.18 0.67 83 1018.2
20260903093642 66 26 5.0 12.0 0.73 1.12 0.61 83 1018.7
20260903093136 66 5 7.0 12.0 0.67 1.06 0.55 83 1018.7
20260903092644 67 10 6.0 12.0 0.54 0.93 0.42 83 1018.8
20260903092135 67 277 2.0 15.0 0.53 0.92 0.41 83 1019.1
20260903091637 68 47 11.0 18.0 0.44 0.83 0.32 83 1018.7
20260903091144 68 47 9.0 21.0 0.25 0.64 0.13 83 1018.8
20260903090636 69 10 5.0 13.0 0.02 0.41 0.41 83 1019.0
20260903090124 70 39 8.0 13.0 0.00 0.39 0.39 82 1018.5
20260903085620 69 37 9.0 14.0 0.00 0.39 0.39 83 1017.9
20260903085134 69 29 9.0 13.0 0.00 0.39 0.39 83 1017.5
20260903084622 69 5 7.0 10.0 0.00 0.39 0.39 83 1017.9
20260903084137 69 37 5.0 9.0 0.00 0.39 0.39 83 1017.8
20260903083624 70 50 0.0 12.0 0.00 0.39 0.39 84 1018.0
20260903083139 70 322 5.0 19.0 0.00 0.39 0.39 84 1018.2
20260903082626 69 353 13.0 19.0 0.00 0.39 0.39 84 1018.0
20260903082119 70 10 13.0 17.0 0.00 0.39 0.39 85 1018.2
20260903081633 69 24 7.0 10.0 0.00 0.39 0.39 85 1017.7
20260903081122 69 5 6.0 10.0 0.00 0.39 0.39 85 1017.3
20260903080618 69 35 4.0 10.0 0.00 0.39 0.39 85 1017.0
20260903080134 68 14 3.0 10.0 0.00 0.39 0.39 84 1017.1
20260903075622 68 29 4.0 8.0 0.00 0.39 0.39 84 1017.1
20260903075136 68 47 3.0 5.0 0.00 0.39 0.39 84 1016.8
20260903074624 68 56 1.0 2.0 0.00 0.39 0.39 84 1016.8
20260903074136 68 56 0.0 4.0 0.00 0.39 0.39 84 1016.7
20260903073642 68 61 2.0 5.0 0.00 0.39 0.39 84 1016.5
20260903073135 68 61 1.0 5.0 0.00 0.39 0.39 84 1016.5
20260903072631 67 62 2.0 5.0 0.00 0.39 0.39 84 1016.5
20260903072123 67 69 2.0 4.0 0.00 0.39 0.39 84 1016.5
20260903071639 67 70 0.0 4.0 0.00 0.39 0.39 84 1016.6
20260903071125 67 116 0.0 0.0 0.00 0.39 0.39 84 1016.4
20260903070639 66 117 0.0 0.0 0.00 0.39 0.39 84 1016.4
20260903070126 66 117 0.0 0.0 0.00 0.39 0.39 84 1016.3
20260903065620 66 207 0.0 0.0 0.00 0.39 0.39 84 1016.3
20260903065155 66 207 0.0 0.0 0.00 0.39 0.39 84 1016.2
20260903064621 66 207 0.0 0.0 0.00 0.39 0.39 84 1016.1
20260903064137 66 207 0.0 0.0 0.00 0.39 0.39 84 1016.0
20260903063623 67 207 0.0 0.0 0.00 0.39 0.39 84 1016.2
20260903063158 67 207 0.0 0.0 0.00 0.39 0.39 84 1016.3
20260903062623 67 207 0.0 0.0 0.00 0.39 0.39 84 1016.2
20260903062137 67 207 0.0 0.0 0.00 0.39 0.39 84 1016.3
20260903061625 67 207 0.0 0.0 0.00 0.39 0.39 84 1016.4
20260903061141 67 207 0.0 0.0 0.00 0.39 0.39 83 1016.4
20260903060633 67 207 0.0 0.0 0.00 0.39 0.39 83 1016.5
20260903060119 67 207 0.0 0.0 0.00 0.39 0.39 83 1016.5
20260903055650 67 207 0.0 0.0 0.00 0.39 0.39 84 1016.5
20260903055121 67 207 0.0 0.0 0.00 0.39 0.39 84 1016.3
20260903054634 67 207 0.0 0.0 0.00 0.39 0.39 83 1016.1
20260903054130 67 207 0.0 0.0 0.00 0.39 0.39 83 1016.2
20260903053622 67 207 0.0 0.0 0.00 0.39 0.39 83 1016.2
20260903053136 68 207 0.0 0.0 0.00 0.39 0.39 83 1016.2
20260903052623 68 207 0.0 0.0 0.00 0.39 0.39 83 1016.2
20260903052136 68 207 0.0 0.0 0.00 0.39 0.39 83 1016.2
20260903051623 68 207 0.0 0.0 0.00 0.39 0.39 83 1016.2
20260903051119 68 207 0.0 0.0 0.00 0.39 0.39 83 1016.2
20260903050633 68 207 0.0 0.0 0.00 0.39 0.39 83 1016.2
20260903050122 68 207 0.0 0.0 0.00 0.39 0.39 83 1016.1
20260903045637 68 207 0.0 0.0 0.00 0.39 0.39 83 1016.1
20260903045122 68 207 0.0 0.0 0.00 0.39 0.39 83 1016.1
20260903044635 68 207 0.0 0.0 0.00 0.39 0.39 83 1016.1
20260903044123 68 207 0.0 0.0 0.00 0.39 0.39 83 1016.1
20260903043636 68 207 0.0 0.0 0.00 0.39 0.39 83 1016.2
20260903043124 68 207 0.0 0.0 0.00 0.39 0.39 83 1016.4
20260903042619 68 207 0.0 0.0 0.00 0.39 0.39 83 1016.6
20260903042131 68 208 0.0 0.0 0.00 0.39 0.39 83 1016.6
20260903041618 68 208 0.0 0.0 0.00 0.39 0.39 83 1016.4
20260903041134 68 208 0.0 0.0 0.00 0.39 0.39 83 1016.2
20260903040639 68 208 0.0 0.0 0.00 0.39 0.39 83 1016.3
20260903040126 68 208 0.0 0.0 0.00 0.39 0.39 83 1016.2
20260903035637 68 208 0.0 0.0 0.00 0.39 0.39 83 1016.3
20260903035123 68 207 0.0 0.0 0.00 0.39 0.39 83 1016.3
20260903034634 68 207 0.0 0.0 0.00 0.39 0.39 83 1016.5
20260903034144 68 207 0.0 0.0 0.00 0.39 0.39 83 1016.8
20260903033659 68 207 0.0 0.0 0.00 0.39 0.39 83 1016.9
20260903033125 68 207 0.0 0.0 0.00 0.39 0.39 83 1016.8
20260903032619 68 207 0.0 0.0 0.00 0.39 0.39 83 1016.8
20260903032134 68 207 0.0 0.0 0.00 0.39 0.39 83 1016.9
20260903031621 68 207 0.0 0.0 0.00 0.39 0.39 83 1017.0
20260903031136 68 207 0.0 0.0 0.00 0.39 0.39 83 1016.8
20260903030621 68 207 0.0 0.0 0.00 0.39 0.39 83 1016.9
20260903030136 69 207 0.0 0.0 0.00 0.39 0.39 83 1016.7
20260903025646 69 207 0.0 0.0 0.00 0.39 0.39 83 1016.6
20260903025119 69 207 0.0 0.0 0.00 0.39 0.39 83 1016.5
20260903024633 69 207 0.0 0.0 0.00 0.39 0.39 83 1016.4
20260903024122 69 207 0.0 0.0 0.00 0.39 0.39 83 1016.5
20260903023635 69 208 0.0 3.0 0.00 0.39 0.39 83 1016.5
20260903023122 69 208 0.0 5.0 0.00 0.39 0.39 82 1016.5
20260903022638 69 213 1.0 5.0 0.00 0.39 0.39 83 1016.3
20260903022145 69 203 1.0 4.0 0.00 0.39 0.39 83 1016.3
20260903021619 70 206 1.0 4.0 0.00 0.39 0.39 82 1016.4
20260903021134 70 210 0.0 2.0 0.00 0.39 0.39 82 1016.5
20260903020620 70 211 0.0 2.0 0.00 0.39 0.39 82 1016.5
20260903020131 70 211 0.0 3.0 0.00 0.39 0.39 82 1016.4
20260903015619 71 226 0.0 2.0 0.00 0.39 0.39 82 1016.6
20260903015132 71 228 0.0 0.0 0.00 0.39 0.39 82 1016.7
20260903014626 71 228 0.0 0.0 0.00 0.39 0.39 82 1016.9
20260903014202 72 228 0.0 0.0 0.00 0.39 0.39 81 1017.0
20260903013646 72 228 0.0 0.0 0.00 0.39 0.39 81 1017.0
20260903013118 73 228 0.0 0.0 0.00 0.39 0.39 81 1017.0
20260903012635 73 228 0.0 0.0 0.00 0.39 0.39 80 1016.9
20260903012122 73 228 0.0 2.0 0.00 0.39 0.39 80 1016.9
20260903011654 73 228 1.0 3.0 0.00 0.39 0.39 80 1016.8
20260903011120 73 229 0.0 9.0 0.00 0.39 0.39 80 1016.6
20260903010634 73 229 3.0 9.0 0.00 0.39 0.39 80 1016.7
20260903010121 73 226 2.0 8.0 0.00 0.39 0.39 81 1016.9
20260903005657 73 202 1.0 6.0 0.00 0.39 0.39 81 1017.0
20260903005123 74 210 2.0 6.0 0.00 0.39 0.39 81 1017.0
20260903004637 74 178 1.0 4.0 0.00 0.39 0.39 81 1017.0
20260903004125 74 220 0.0 9.0 0.00 0.39 0.39 81 1017.1
20260903003638 74 220 4.0 9.0 0.00 0.39 0.39 81 1017.1
20260903003140 74 221 3.0 8.0 0.00 0.39 0.39 80 1017.2
20260903002635 74 215 4.0 8.0 0.00 0.39 0.39 80 1017.1
20260903002129 75 219 4.0 8.0 0.00 0.39 0.39 81 1017.2
20260903001624 75 224 4.0 7.0 0.00 0.39 0.39 81 1017.2
20260903001159 75 230 2.0 7.0 0.00 0.39 0.39 80 1017.0
20260903000624 76 201 1.0 5.0 0.00 0.39 0.39 80 1017.0
20260903000158 76 223 2.0 6.0 0.00 0.39 0.39 80 1017.1
20260902235644 76 229 3.0 10.0 0.00 0.39 0.39 80 1016.9
20260902235136 77 230 3.0 10.0 0.00 0.39 0.39 79 1016.9
20260902234625 77 215 3.0 7.0 0.00 0.39 0.39 78 1016.9
20260902234121 77 195 1.0 8.0 0.00 0.39 0.39 78 1017.0
20260902233634 78 189 1.0 8.0 0.00 0.39 0.39 78 1016.9
20260902233141 78 214 2.0 8.0 0.00 0.39 0.39 77 1016.6
20260902232636 79 214 3.0 8.0 0.00 0.39 0.39 77 1016.6
20260902232122 79 200 2.0 4.0 0.00 0.39 0.39 76 1016.6
20260902231617 80 204 2.0 5.0 0.00 0.39 0.39 75 1016.7
20260902231132 80 225 2.0 9.0 0.00 0.39 0.39 75 1016.6
20260902230620 81 222 2.0 9.0 0.00 0.39 0.39 74 1016.5
20260902230150 81 241 5.0 9.0 0.00 0.39 0.39 74 1016.3
20260902225626 82 226 4.0 7.0 0.00 0.39 0.39 75 1016.3
20260902225119 82 245 3.0 8.0 0.00 0.39 0.39 74 1016.3
20260902224631 82 219 3.0 9.0 0.00 0.39 0.39 73 1016.3
20260902224126 83 183 6.0 16.0 0.00 0.39 0.39 73 1016.3
20260902223621 84 143 6.0 17.0 0.00 0.39 0.39 75 1016.4
20260902223155 84 205 1.0 13.0 0.00 0.39 0.39 76 1016.6
20260902222642 85 148 7.0 13.0 0.00 0.39 0.39 74 1016.5
20260902222146 85 112 3.0 8.0 0.00 0.39 0.39 76 1016.4
20260902221618 85 149 1.0 3.0 0.00 0.39 0.39 78 1016.4
20260902221134 86 210 0.0 1.0 0.00 0.39 0.39 78 1016.4
20260902220621 86 210 0.0 1.0 0.00 0.39 0.39 77 1016.5
20260902220155 86 210 0.0 2.0 0.00 0.39 0.39 76 1016.5
20260902215622 86 210 0.0 2.0 0.00 0.39 0.39 76 1016.4
20260902215136 86 207 0.0 2.0 0.00 0.39 0.39 75 1016.3
20260902214622 87 205 1.0 7.0 0.00 0.39 0.39 74 1016.2
20260902214136 87 208 1.0 9.0 0.00 0.39 0.39 74 1016.2
20260902213622 87 232 5.0 9.0 0.00 0.39 0.39 74 1016.4
20260902213138 87 239 4.0 7.0 0.00 0.39 0.39 74 1016.3
20260902212626 87 234 4.0 8.0 0.00 0.39 0.39 74 1016.2
20260902212137 87 203 3.0 9.0 0.00 0.39 0.39 74 1016.3
20260902211626 87 216 4.0 9.0 0.00 0.39 0.39 73 1016.4
20260902211141 86 215 4.0 7.0 0.00 0.39 0.39 75 1016.5
20260902210625 85 231 1.0 3.0 0.00 0.39 0.39 77 1016.5
20260902210139 85 223 0.0 5.0 0.00 0.39 0.39 77 1016.5
20260902205647 85 223 2.0 5.0 0.00 0.39 0.39 76 1016.6
20260902205119 85 214 1.0 8.0 0.00 0.39 0.39 75 1016.7
20260902204635 86 214 1.0 8.0 0.00 0.39 0.39 74 1016.8
20260902204125 87 185 1.0 7.0 0.00 0.39 0.39 74 1016.8
20260902203618 86 183 3.0 8.0 0.00 0.39 0.39 74 1016.8
20260902203133 86 197 3.0 8.0 0.00 0.39 0.39 75 1016.7
20260902202621 86 232 5.0 9.0 0.00 0.39 0.39 74 1016.7
20260902202156 86 232 5.0 9.0 0.00 0.39 0.39 73 1016.7
20260902201642 86 178 3.0 9.0 0.00 0.39 0.39 73 1016.8
20260902201158 86 180 4.0 9.0 0.00 0.39 0.39 73 1016.8
20260902200624 86 184 3.0 9.0 0.00 0.39 0.39 74 1016.7
20260902200117 85 242 6.0 9.0 0.00 0.39 0.39 74 1016.7
20260902195632 86 243 5.0 10.0 0.00 0.39 0.39 72 1016.7
20260902195119 87 265 3.0 10.0 0.00 0.39 0.39 71 1016.8
20260902194635 87 217 3.0 10.0 0.00 0.39 0.39 72 1016.9
20260902194121 87 204 4.0 9.0 0.00 0.39 0.39 70 1016.9
20260902193650 87 193 3.0 9.0 0.00 0.39 0.39 72 1017.1
20260902193123 87 216 3.0 9.0 0.00 0.39 0.39 72 1017.1
20260902192618 86 232 4.0 8.0 0.00 0.39 0.39 73 1017.2
20260902192130 86 216 5.0 9.0 0.00 0.39 0.39 74 1017.2
20260902191624 86 252 4.0 9.0 0.00 0.39 0.39 74 1017.3
20260902191139 86 250 2.0 7.0 0.00 0.39 0.39 74 1017.3
20260902190625 86 231 3.0 7.0 0.00 0.39 0.39 73 1017.4
20260902190119 86 208 1.0 10.0 0.00 0.39 0.39 75 1017.3
20260902185636 85 244 4.0 7.0 0.00 0.39 0.39 74 1017.4
20260902185123 85 201 1.0 11.0 0.00 0.39 0.39 74 1017.4
20260902184636 85 197 2.0 11.0 0.00 0.39 0.39 74 1017.5
20260902184123 86 150 5.0 12.0 0.00 0.39 0.39 74 1017.5
20260902183636 86 174 7.0 13.0 0.00 0.39 0.39 75 1017.6
20260902183123 85 151 4.0 8.0 0.00 0.39 0.39 76 1017.6
20260902182619 85 174 6.0 8.0 0.00 0.39 0.39 75 1017.7
20260902182134 85 157 2.0 6.0 0.00 0.39 0.39 75 1017.7
20260902181623 85 153 2.0 7.0 0.00 0.39 0.39 76 1017.8
20260902181137 84 154 1.0 6.0 0.00 0.39 0.39 78 1017.9
20260902180623 84 158 1.0 6.0 0.00 0.39 0.39 75 1017.9
20260902180137 84 186 2.0 8.0 0.00 0.39 0.39 77 1018.1
20260902175632 83 168 1.0 7.0 0.00 0.39 0.39 78 1018.2
20260902175121 82 180 2.0 7.0 0.00 0.39 0.39 77 1018.3
20260902174636 82 188 3.0 5.0 0.00 0.39 0.39 77 1018.3
20260902174124 81 193 2.0 5.0 0.00 0.39 0.39 79 1018.5
20260902173638 79 212 1.0 5.0 0.00 0.39 0.39 78 1018.6
20260902173123 79 223 2.0 5.0 0.00 0.39 0.39 80 1018.6
20260902172619 77 205 1.0 4.0 0.00 0.39 0.39 81 1018.7
20260902172148 76 208 0.0 0.0 0.00 0.39 0.39 82 1018.6
20260902171643 74 208 0.0 0.0 0.00 0.39 0.39 82 1018.8
20260902171138 74 219 0.0 0.0 0.00 0.39 0.39 82 1018.9
20260902170625 73 220 0.0 0.0 0.00 0.39 0.39 82 1019.0
20260902170138 73 220 0.0 0.0 0.00 0.39 0.39 82 1019.1
20260902165625 73 220 0.0 1.0 0.00 0.39 0.39 83 1019.3
20260902165138 72 214 0.0 1.0 0.02 0.39 0.39 83 1019.4
20260902164632 71 216 0.0 4.0 0.17 0.39 0.39 83 1019.5
20260902164119 70 216 1.0 4.0 0.37 0.39 0.39 83 1019.6
20260902163632 70 209 0.0 3.0 0.39 0.39 0.39 83 1019.8
20260902163120 70 209 0.0 3.0 0.39 0.39 0.39 83 1020.0
20260902162634 69 146 0.0 0.0 0.39 0.39 0.39 83 1020.1
20260902162120 69 119 0.0 0.0 0.39 0.39 0.39 83 1020.0
20260902161634 69 119 0.0 0.0 0.39 0.39 0.39 82 1020.0
20260902161123 69 119 0.0 0.0 0.39 0.39 0.39 82 1020.1
20260902160616 69 119 0.0 0.0 0.39 0.39 0.39 82 1020.4
20260902160132 69 119 0.0 3.0 0.39 0.39 0.39 82 1020.4
20260902155642 69 119 0.0 9.0 0.39 0.39 0.39 82 1020.1
20260902155152 70 97 6.0 14.0 0.37 0.37 0.37 82 1020.0
20260902154644 70 52 1.0 15.0 0.19 0.19 0.19 82 1020.5
20260902154159 71 10 11.0 17.0 0.01 0.01 0.01 81 1020.8
20260902153622 72 14 10.0 17.0 0.00 0.00 0.00 81 1020.0
20260902153157 72 66 7.0 16.0 0.00 0.00 0.00 81 1020.3
20260902152644 73 5 9.0 21.0 0.00 0.00 0.00 80 1020.7
20260902152137 74 60 13.0 21.0 0.00 0.00 0.00 79 1020.5
20260902151623 76 39 12.0 27.0 0.00 0.00 0.00 79 1020.6
20260902151119 77 360 18.0 27.0 0.00 0.00 0.00 79 1020.4
20260902150633 78 19 5.0 9.0 0.00 0.00 0.00 80 1019.8
20260902150121 79 203 0.0 0.0 0.00 0.00 0.00 80 1019.4
20260902145635 79 203 0.0 0.0 0.00 0.00 0.00 80 1019.1
20260902145123 79 203 0.0 1.0 0.00 0.00 0.00 80 1018.9
20260902144636 79 203 0.0 4.0 0.00 0.00 0.00 80 1018.8
20260902144123 78 203 1.0 4.0 0.00 0.00 0.00 81 1018.6
20260902143636 78 213 1.0 5.0 0.00 0.00 0.00 81 1018.5
20260902143124 77 176 2.0 6.0 0.00 0.00 0.00 81 1018.5
20260902142616 77 180 2.0 5.0 0.00 0.00 0.00 81 1018.4
20260902142140 77 180 1.0 5.0 0.00 0.00 0.00 81 1018.5
20260902141635 76 204 2.0 5.0 0.00 0.00 0.00 81 1018.6
20260902141129 76 230 2.0 5.0 0.00 0.00 0.00 81 1018.5
20260902140621 76 186 1.0 6.0 0.00 0.00 0.00 81 1018.3
20260902140135 76 237 2.0 6.0 0.00 0.00 0.00 81 1018.3
20260902135621 75 224 2.0 7.0 0.00 0.00 0.00 81 1018.3
20260902135135 75 216 3.0 7.0 0.00 0.00 0.00 81 1018.3
20260902134622 75 212 1.0 5.0 0.00 0.00 0.00 81 1018.2
20260902134136 75 210 1.0 5.0 0.00 0.00 0.00 82 1018.3
20260902133621 75 220 2.0 5.0 0.00 0.00 0.00 81 1018.3
20260902133136 74 213 2.0 5.0 0.00 0.00 0.00 81 1018.4
20260902132625 74 208 1.0 5.0 0.00 0.00 0.00 81 1018.3
20260902132138 74 207 2.0 6.0 0.00 0.00 0.00 82 1018.4
20260902131625 74 206 3.0 6.0 0.00 0.00 0.00 82 1018.4
20260902131200 74 192 3.0 6.0 0.00 0.00 0.00 82 1018.4
20260902130624 74 199 1.0 5.0 0.00 0.00 0.00 82 1018.5
20260902130117 74 169 2.0 6.0 0.00 0.00 0.00 82 1018.4
20260902125633 73 187 3.0 7.0 0.00 0.00 0.00 82 1018.4
20260902125138 73 160 1.0 3.0 0.00 0.00 0.00 82 1018.4
20260902124632 73 154 1.0 4.0 0.00 0.00 0.00 82 1018.5
20260902124120 72 178 1.0 4.0 0.00 0.00 0.00 82 1018.7
20260902123633 72 187 1.0 3.0 0.00 0.00 0.00 82 1018.8
20260902123118 72 191 1.0 3.0 0.00 0.00 0.00 82 1018.6
20260902122629 72 193 1.0 3.0 0.00 0.00 0.00 83 1018.4
20260902122141 71 196 1.0 4.0 0.00 0.00 0.00 83 1018.3
20260902121634 71 197 2.0 4.0 0.00 0.00 0.00 83 1018.2
20260902121130 71 201 1.0 4.0 0.00 0.00 0.00 83 1018.1
20260902120623 70 214 1.0 4.0 0.00 0.00 0.00 83 1018.2
20260902120137 70 203 1.0 4.0 0.00 0.00 0.00 83 1018.2
20260902115624 70 215 1.0 4.0 0.00 0.00 0.00 83 1018.2
20260902115138 69 213 1.0 2.0 0.00 0.00 0.00 84 1018.1
20260902114644 69 213 1.0 2.0 0.00 0.00 0.00 84 1018.2
20260902114119 69 212 0.0 1.0 0.00 0.00 0.00 83 1018.2
20260902113633 69 213 0.0 0.0 0.00 0.00 0.00 84 1018.2
20260902113120 69 214 0.0 2.0 0.00 0.00 0.00 83 1018.2
20260902112635 68 214 0.0 5.0 0.00 0.00 0.00 83 1018.1
20260902112141 68 214 2.0 5.0 0.00 0.00 0.00 83 1018.0
20260902111635 68 205 1.0 3.0 0.00 0.00 0.00 83 1017.9
20260902111122 68 206 0.0 4.0 0.00 0.00 0.00 83 1017.9
20260902110656 68 205 1.0 4.0 0.00 0.00 0.00 83 1017.9
20260902110124 68 224 1.0 3.0 0.00 0.00 0.00 83 1017.9
20260902105617 68 224 0.0 3.0 0.00 0.00 0.00 83 1017.8
20260902105132 68 224 0.0 5.0 0.00 0.00 0.00 83 1017.8
20260902104619 68 226 2.0 5.0 0.00 0.00 0.00 83 1017.9
20260902104128 68 222 2.0 3.0 0.00 0.00 0.00 83 1017.7
20260902103640 68 212 1.0 3.0 0.00 0.00 0.00 83 1017.8
20260902103154 68 212 1.0 4.0 0.00 0.00 0.00 83 1017.7
20260902102622 68 210 1.0 4.0 0.00 0.00 0.00 83 1017.9
20260902102136 68 232 1.0 4.0 0.00 0.00 0.00 83 1018.0
20260902101624 68 214 2.0 5.0 0.00 0.00 0.00 83 1017.9
20260902101140 68 213 3.0 5.0 0.00 0.00 0.00 83 1018.0